owner,sensor,date,latitude,longitude,air_pressure(mBar),qcFlag 
TABS,ioos:station:wmo:42045:1,2007-05-01T00:00:00Z,26.2168,-96.4998,991.97,11111222 
TABS,ioos:station:wmo:42045:1,2007-05-01T00:30:00Z,26.2168,-96.4998,988.26,11111222 
TABS,ioos:station:wmo:42045:1,2007-05-01T01:00:00Z,26.2168,-96.4998,987.01,11111222 
TABS,ioos:station:wmo:42045:1,2007-05-01T01:30:00Z,26.2168,-96.4998,986.55,11111222 
TABS,ioos:station:wmo:42045:1,2007-05-01T02:00:00Z,26.2168,-96.4998,986.85,11111222 
TABS,ioos:station:wmo:42045:1,2007-05-01T02:30:00Z,26.2168,-96.4998,986.83,11111222 
TABS,ioos:station:wmo:42045:1,2007-05-01T03:00:00Z,26.2168,-96.4998,986.9,11111222 
TABS,ioos:station:wmo:42045:1,2007-05-01T03:30:00Z,26.2168,-96.4998,986.93,11111222 
TABS,ioos:station:wmo:42045:1,2007-05-01T04:00:00Z,26.2168,-96.4998,986.81,11111222 
TABS,ioos:station:wmo:42045:1,2007-05-01T04:30:00Z,26.2168,-96.4998,986.6,11111222 
TABS,ioos:station:wmo:42045:1,2007-05-01T05:00:00Z,26.2168,-96.4998,986.33,11111222 
TABS,ioos:station:wmo:42045:1,2007-05-01T05:30:00Z,26.2168,-96.4998,986.51,11111222 
TABS,ioos:station:wmo:42045:1,2007-05-01T06:00:00Z,26.2168,-96.4998,987.76,11111222 
TABS,ioos:station:wmo:42045:1,2007-05-01T06:30:00Z,26.2168,-96.4998,988.08,11111222 
TABS,ioos:station:wmo:42045:1,2007-05-01T07:00:00Z,26.2168,-96.4998,988.19,11111222 
TABS,ioos:station:wmo:42045:1,2007-05-01T07:30:00Z,26.2168,-96.4998,988.26,11111222 
TABS,ioos:station:wmo:42045:1,2007-05-01T08:00:00Z,26.2168,-96.4998,987.92,11111222 
TABS,ioos:station:wmo:42045:1,2007-05-01T08:30:00Z,26.2168,-96.4998,987.87,11111222 
TABS,ioos:station:wmo:42045:1,2007-05-01T09:00:00Z,26.2168,-96.4998,987.74,11111222 
TABS,ioos:station:wmo:42045:1,2007-05-01T09:30:00Z,26.2168,-96.4998,987.69,11111222 
TABS,ioos:station:wmo:42045:1,2007-05-01T10:00:00Z,26.2168,-96.4998,987.65,11111222 
TABS,ioos:station:wmo:42045:1,2007-05-01T10:30:00Z,26.2168,-96.4998,987.94,11111222 
TABS,ioos:station:wmo:42045:1,2007-05-01T11:00:00Z,26.2168,-96.4998,988.18,11111222 
TABS,ioos:station:wmo:42045:1,2007-05-01T11:30:00Z,26.2168,-96.4998,988.06,11111222 
TABS,ioos:station:wmo:42045:1,2007-05-01T12:00:00Z,26.2168,-96.4998,988.62,11111222 
TABS,ioos:station:wmo:42045:1,2007-05-01T12:30:00Z,26.2168,-96.4998,993.6,11111222 
TABS,ioos:station:wmo:42045:1,2007-05-01T13:00:00Z,26.2168,-96.4998,999.75,11111222 
TABS,ioos:station:wmo:42045:1,2007-05-01T13:30:00Z,26.2168,-96.4998,1004.4,11111222 
TABS,ioos:station:wmo:42045:1,2007-05-01T14:00:00Z,26.2168,-96.4998,1006.3,11111222 
TABS,ioos:station:wmo:42045:1,2007-05-01T14:30:00Z,26.2168,-96.4998,1009.55,11111222 
TABS,ioos:station:wmo:42045:1,2007-05-01T15:00:00Z,26.2168,-96.4998,1011.23,11111222 
TABS,ioos:station:wmo:42045:1,2007-05-01T15:30:00Z,26.2168,-96.4998,1012.03,11111222 
TABS,ioos:station:wmo:42045:1,2007-05-01T16:00:00Z,26.2168,-96.4998,1012.05,11111222 
TABS,ioos:station:wmo:42045:1,2007-05-01T16:30:00Z,26.2168,-96.4998,1010.49,11111222 
TABS,ioos:station:wmo:42045:1,2007-05-01T17:00:00Z,26.2168,-96.4998,1009.07,11111222 
TABS,ioos:station:wmo:42045:1,2007-05-01T17:30:00Z,26.2168,-96.4998,1006.8,11111222 
TABS,ioos:station:wmo:42045:1,2007-05-01T18:00:00Z,26.2168,-96.4998,1003.93,11111222 
TABS,ioos:station:wmo:42045:1,2007-05-01T18:30:00Z,26.2168,-96.4998,1000.83,11111222 
TABS,ioos:station:wmo:42045:1,2007-05-01T19:00:00Z,26.2168,-96.4998,999.77,11111222 
TABS,ioos:station:wmo:42045:1,2007-05-01T19:30:00Z,26.2168,-96.4998,999.72,11111222 
TABS,ioos:station:wmo:42045:1,2007-05-01T20:00:00Z,26.2168,-96.4998,1000.06,11111222 
TABS,ioos:station:wmo:42045:1,2007-05-01T20:30:00Z,26.2168,-96.4998,1001.91,11111222 
TABS,ioos:station:wmo:42045:1,2007-05-01T21:00:00Z,26.2168,-96.4998,1002.5,11111222 
TABS,ioos:station:wmo:42045:1,2007-05-01T21:30:00Z,26.2168,-96.4998,1001.94,11111222 
TABS,ioos:station:wmo:42045:1,2007-05-01T22:00:00Z,26.2168,-96.4998,1001.99,11111222 
TABS,ioos:station:wmo:42045:1,2007-05-01T22:30:00Z,26.2168,-96.4998,1001.06,11111222 
TABS,ioos:station:wmo:42045:1,2007-05-01T23:00:00Z,26.2168,-96.4998,1000.49,11111222 
TABS,ioos:station:wmo:42045:1,2007-05-01T23:30:00Z,26.2168,-96.4998,998.75,11111222 
TABS,ioos:station:wmo:42045:1,2007-05-02T00:00:00Z,26.2168,-96.4998,995.88,11111222 
TABS,ioos:station:wmo:42045:1,2007-05-02T00:30:00Z,26.2168,-96.4998,991.61,11111222 
TABS,ioos:station:wmo:42045:1,2007-05-02T01:00:00Z,26.2168,-96.4998,989.13,11111222 
TABS,ioos:station:wmo:42045:1,2007-05-02T01:30:00Z,26.2168,-96.4998,988.88,11111222 
TABS,ioos:station:wmo:42045:1,2007-05-02T02:00:00Z,26.2168,-96.4998,988.87,11111222 
TABS,ioos:station:wmo:42045:1,2007-05-02T02:30:00Z,26.2168,-96.4998,988.95,11111222 
TABS,ioos:station:wmo:42045:1,2007-05-02T03:00:00Z,26.2168,-96.4998,988.98,11111222 
TABS,ioos:station:wmo:42045:1,2007-05-02T03:30:00Z,26.2168,-96.4998,988.95,11111222 
TABS,ioos:station:wmo:42045:1,2007-05-02T04:00:00Z,26.2168,-96.4998,988.99,11111222 
TABS,ioos:station:wmo:42045:1,2007-05-02T04:30:00Z,26.2168,-96.4998,989.13,11111222 
TABS,ioos:station:wmo:42045:1,2007-05-02T05:00:00Z,26.2168,-96.4998,988.9,11111222 
TABS,ioos:station:wmo:42045:1,2007-05-02T05:30:00Z,26.2168,-96.4998,988.86,11111222 
TABS,ioos:station:wmo:42045:1,2007-05-02T06:00:00Z,26.2168,-96.4998,988.73,11111222 
TABS,ioos:station:wmo:42045:1,2007-05-02T06:30:00Z,26.2168,-96.4998,988.74,11111222 
TABS,ioos:station:wmo:42045:1,2007-05-02T07:00:00Z,26.2168,-96.4998,988.59,11111222 
TABS,ioos:station:wmo:42045:1,2007-05-02T07:30:00Z,26.2168,-96.4998,988.44,11111222 
TABS,ioos:station:wmo:42045:1,2007-05-02T08:00:00Z,26.2168,-96.4998,988.35,11111222 
TABS,ioos:station:wmo:42045:1,2007-05-02T08:30:00Z,26.2168,-96.4998,988.32,11111222 
TABS,ioos:station:wmo:42045:1,2007-05-02T09:00:00Z,26.2168,-96.4998,988.15,11111222 
TABS,ioos:station:wmo:42045:1,2007-05-02T09:30:00Z,26.2168,-96.4998,987.99,11111222 
TABS,ioos:station:wmo:42045:1,2007-05-02T10:00:00Z,26.2168,-96.4998,987.87,11111222 
TABS,ioos:station:wmo:42045:1,2007-05-02T10:30:00Z,26.2168,-96.4998,987.87,11111222 
TABS,ioos:station:wmo:42045:1,2007-05-02T11:00:00Z,26.2168,-96.4998,987.83,11111222 
TABS,ioos:station:wmo:42045:1,2007-05-02T11:30:00Z,26.2168,-96.4998,987.77,11111222 
TABS,ioos:station:wmo:42045:1,2007-05-02T12:00:00Z,26.2168,-96.4998,988.62,11111222 
TABS,ioos:station:wmo:42045:1,2007-05-02T12:30:00Z,26.2168,-96.4998,994.27,11111222 
TABS,ioos:station:wmo:42045:1,2007-05-02T13:00:00Z,26.2168,-96.4998,1000.32,11111222 
TABS,ioos:station:wmo:42045:1,2007-05-02T13:30:00Z,26.2168,-96.4998,1002.0,11111222 
TABS,ioos:station:wmo:42045:1,2007-05-02T14:00:00Z,26.2168,-96.4998,999.16,11111222 
TABS,ioos:station:wmo:42045:1,2007-05-02T14:30:00Z,26.2168,-96.4998,998.45,11111222 
TABS,ioos:station:wmo:42045:1,2007-05-02T15:00:00Z,26.2168,-96.4998,1006.77,11111222 
TABS,ioos:station:wmo:42045:1,2007-05-02T15:30:00Z,26.2168,-96.4998,1009.53,11111222 
TABS,ioos:station:wmo:42045:1,2007-05-02T16:00:00Z,26.2168,-96.4998,1008.94,11111222 
TABS,ioos:station:wmo:42045:1,2007-05-02T16:30:00Z,26.2168,-96.4998,1010.26,11111222 
TABS,ioos:station:wmo:42045:1,2007-05-02T17:00:00Z,26.2168,-96.4998,1008.49,11111222 
TABS,ioos:station:wmo:42045:1,2007-05-02T17:30:00Z,26.2168,-96.4998,1002.9,11111222 
TABS,ioos:station:wmo:42045:1,2007-05-02T18:00:00Z,26.2168,-96.4998,1004.35,11111222 
TABS,ioos:station:wmo:42045:1,2007-05-02T18:30:00Z,26.2168,-96.4998,1001.79,11111222 
TABS,ioos:station:wmo:42045:1,2007-05-02T19:00:00Z,26.2168,-96.4998,999.98,11111222 
TABS,ioos:station:wmo:42045:1,2007-05-02T19:30:00Z,26.2168,-96.4998,999.42,11111222 
TABS,ioos:station:wmo:42045:1,2007-05-02T20:00:00Z,26.2168,-96.4998,999.91,11111222 
TABS,ioos:station:wmo:42045:1,2007-05-02T20:30:00Z,26.2168,-96.4998,1003.05,11111222 
TABS,ioos:station:wmo:42045:1,2007-05-02T21:00:00Z,26.2168,-96.4998,1003.67,11111222 
TABS,ioos:station:wmo:42045:1,2007-05-02T21:30:00Z,26.2168,-96.4998,1003.95,11111222 
TABS,ioos:station:wmo:42045:1,2007-05-02T22:00:00Z,26.2168,-96.4998,1003.34,11111222 
TABS,ioos:station:wmo:42045:1,2007-05-02T22:30:00Z,26.2168,-96.4998,997.69,11111222 
TABS,ioos:station:wmo:42045:1,2007-05-02T23:00:00Z,26.2168,-96.4998,998.39,11111222 
TABS,ioos:station:wmo:42045:1,2007-05-02T23:30:00Z,26.2168,-96.4998,997.09,11111222 
TABS,ioos:station:wmo:42045:1,2007-05-03T00:00:00Z,26.2168,-96.4998,992.81,11111222 
TABS,ioos:station:wmo:42045:1,2007-05-03T00:30:00Z,26.2168,-96.4998,991.85,11111222 
TABS,ioos:station:wmo:42045:1,2007-05-03T01:00:00Z,26.2168,-96.4998,991.51,11111222 
TABS,ioos:station:wmo:42045:1,2007-05-03T01:30:00Z,26.2168,-96.4998,991.08,11111222 
TABS,ioos:station:wmo:42045:1,2007-05-03T02:00:00Z,26.2168,-96.4998,990.64,11111222 
TABS,ioos:station:wmo:42045:1,2007-05-03T02:30:00Z,26.2168,-96.4998,990.23,11111222 
TABS,ioos:station:wmo:42045:1,2007-05-03T03:00:00Z,26.2168,-96.4998,989.99,11111222 
TABS,ioos:station:wmo:42045:1,2007-05-03T03:30:00Z,26.2168,-96.4998,990.06,11111222 
TABS,ioos:station:wmo:42045:1,2007-05-03T04:00:00Z,26.2168,-96.4998,990.4,11111222 
TABS,ioos:station:wmo:42045:1,2007-05-03T04:30:00Z,26.2168,-96.4998,990.58,11111222 
TABS,ioos:station:wmo:42045:1,2007-05-03T05:00:00Z,26.2168,-96.4998,990.39,11111222 
TABS,ioos:station:wmo:42045:1,2007-05-03T05:30:00Z,26.2168,-96.4998,991.02,11111222 
TABS,ioos:station:wmo:42045:1,2007-05-03T06:00:00Z,26.2168,-96.4998,991.14,11111222 
TABS,ioos:station:wmo:42045:1,2007-05-03T06:30:00Z,26.2168,-96.4998,990.97,11111222 
TABS,ioos:station:wmo:42045:1,2007-05-03T07:00:00Z,26.2168,-96.4998,991.11,11111222 
TABS,ioos:station:wmo:42045:1,2007-05-03T07:30:00Z,26.2168,-96.4998,990.83,11111222 
TABS,ioos:station:wmo:42045:1,2007-05-03T08:00:00Z,26.2168,-96.4998,989.65,11111222 
TABS,ioos:station:wmo:42045:1,2007-05-03T08:30:00Z,26.2168,-96.4998,974.06,11133222 
TABS,ioos:station:wmo:42045:1,2007-05-03T09:00:00Z,26.2168,-96.4998,972.43,11133222 
TABS,ioos:station:wmo:42045:1,2007-05-03T09:30:00Z,26.2168,-96.4998,973.01,11133222 
TABS,ioos:station:wmo:42045:1,2007-05-03T10:00:00Z,26.2168,-96.4998,979.89,11133222 
TABS,ioos:station:wmo:42045:1,2007-05-03T10:30:00Z,26.2168,-96.4998,983.37,11111222 
TABS,ioos:station:wmo:42045:1,2007-05-03T11:00:00Z,26.2168,-96.4998,987.22,11111222 
TABS,ioos:station:wmo:42045:1,2007-05-03T11:30:00Z,26.2168,-96.4998,991.26,11111222 
TABS,ioos:station:wmo:42045:1,2007-05-03T12:00:00Z,26.2168,-96.4998,991.4,11111222 
TABS,ioos:station:wmo:42045:1,2007-05-03T12:30:00Z,26.2168,-96.4998,992.11,11111222 
TABS,ioos:station:wmo:42045:1,2007-05-03T13:00:00Z,26.2168,-96.4998,998.0,11111222 
TABS,ioos:station:wmo:42045:1,2007-05-03T13:30:00Z,26.2168,-96.4998,1002.36,11111222 
TABS,ioos:station:wmo:42045:1,2007-05-03T14:00:00Z,26.2168,-96.4998,1003.81,11111222 
TABS,ioos:station:wmo:42045:1,2007-05-03T14:30:00Z,26.2168,-96.4998,1006.96,11111222 
TABS,ioos:station:wmo:42045:1,2007-05-03T15:00:00Z,26.2168,-96.4998,1011.0,11111222 
TABS,ioos:station:wmo:42045:1,2007-05-03T15:30:00Z,26.2168,-96.4998,1009.77,11111222 
TABS,ioos:station:wmo:42045:1,2007-05-03T16:00:00Z,26.2168,-96.4998,1019.08,11111222 
TABS,ioos:station:wmo:42045:1,2007-05-03T16:30:00Z,26.2168,-96.4998,1018.0,11111222 
TABS,ioos:station:wmo:42045:1,2007-05-03T17:00:00Z,26.2168,-96.4998,1014.42,11111222 
TABS,ioos:station:wmo:42045:1,2007-05-03T17:30:00Z,26.2168,-96.4998,1011.47,11111222 
TABS,ioos:station:wmo:42045:1,2007-05-03T18:00:00Z,26.2168,-96.4998,1007.9,11111222 
TABS,ioos:station:wmo:42045:1,2007-05-03T18:30:00Z,26.2168,-96.4998,1004.02,11111222 
TABS,ioos:station:wmo:42045:1,2007-05-03T19:00:00Z,26.2168,-96.4998,1003.73,11111222 
TABS,ioos:station:wmo:42045:1,2007-05-03T19:30:00Z,26.2168,-96.4998,1001.33,11111222 
TABS,ioos:station:wmo:42045:1,2007-05-03T20:00:00Z,26.2168,-96.4998,1002.4,11111222 
TABS,ioos:station:wmo:42045:1,2007-05-03T20:30:00Z,26.2168,-96.4998,1003.46,11111222 
TABS,ioos:station:wmo:42045:1,2007-05-03T21:00:00Z,26.2168,-96.4998,1006.01,11111222 
TABS,ioos:station:wmo:42045:1,2007-05-03T21:30:00Z,26.2168,-96.4998,1005.88,11111222 
TABS,ioos:station:wmo:42045:1,2007-05-03T22:00:00Z,26.2168,-96.4998,1005.75,11111222 
TABS,ioos:station:wmo:42045:1,2007-05-03T22:30:00Z,26.2168,-96.4998,1002.74,11111222 
TABS,ioos:station:wmo:42045:1,2007-05-03T23:00:00Z,26.2168,-96.4998,999.39,11111222 
TABS,ioos:station:wmo:42045:1,2007-05-03T23:30:00Z,26.2168,-96.4998,996.61,11111222 
TABS,ioos:station:wmo:42045:1,2007-05-04T00:00:00Z,26.2168,-96.4998,993.98,11111222 
TABS,ioos:station:wmo:42045:1,2007-05-04T00:30:00Z,26.2168,-96.4998,992.33,11111222 
TABS,ioos:station:wmo:42045:1,2007-05-04T01:00:00Z,26.2168,-96.4998,991.95,11111222 
TABS,ioos:station:wmo:42045:1,2007-05-04T01:30:00Z,26.2168,-96.4998,991.69,11111222 
TABS,ioos:station:wmo:42045:1,2007-05-04T02:00:00Z,26.2168,-96.4998,991.32,11111222 
TABS,ioos:station:wmo:42045:1,2007-05-04T02:30:00Z,26.2168,-96.4998,990.83,11111222 
TABS,ioos:station:wmo:42045:1,2007-05-04T03:00:00Z,26.2168,-96.4998,990.52,11111222 
TABS,ioos:station:wmo:42045:1,2007-05-04T03:30:00Z,26.2168,-96.4998,990.75,11111222 
TABS,ioos:station:wmo:42045:1,2007-05-04T04:00:00Z,26.2168,-96.4998,991.17,11111222 
TABS,ioos:station:wmo:42045:1,2007-05-04T04:30:00Z,26.2168,-96.4998,991.52,11111222 
TABS,ioos:station:wmo:42045:1,2007-05-04T05:00:00Z,26.2168,-96.4998,991.54,11111222 
TABS,ioos:station:wmo:42045:1,2007-05-04T05:30:00Z,26.2168,-96.4998,991.38,11111222 
TABS,ioos:station:wmo:42045:1,2007-05-04T06:00:00Z,26.2168,-96.4998,991.25,11111222 
TABS,ioos:station:wmo:42045:1,2007-05-04T06:30:00Z,26.2168,-96.4998,991.23,11111222 
TABS,ioos:station:wmo:42045:1,2007-05-04T07:00:00Z,26.2168,-96.4998,991.0,11111222 
TABS,ioos:station:wmo:42045:1,2007-05-04T07:30:00Z,26.2168,-96.4998,990.86,11111222 
TABS,ioos:station:wmo:42045:1,2007-05-04T08:00:00Z,26.2168,-96.4998,990.99,11111222 
TABS,ioos:station:wmo:42045:1,2007-05-04T08:30:00Z,26.2168,-96.4998,990.97,11111222 
TABS,ioos:station:wmo:42045:1,2007-05-04T09:00:00Z,26.2168,-96.4998,991.13,11111222 
TABS,ioos:station:wmo:42045:1,2007-05-04T09:30:00Z,26.2168,-96.4998,991.32,11111222 
TABS,ioos:station:wmo:42045:1,2007-05-04T10:00:00Z,26.2168,-96.4998,991.34,11111222 
TABS,ioos:station:wmo:42045:1,2007-05-04T10:30:00Z,26.2168,-96.4998,991.32,11111222 
TABS,ioos:station:wmo:42045:1,2007-05-04T11:00:00Z,26.2168,-96.4998,991.22,11111222 
TABS,ioos:station:wmo:42045:1,2007-05-04T11:30:00Z,26.2168,-96.4998,991.14,11111222 
TABS,ioos:station:wmo:42045:1,2007-05-04T12:00:00Z,26.2168,-96.4998,991.28,11111222 
TABS,ioos:station:wmo:42045:1,2007-05-04T12:30:00Z,26.2168,-96.4998,991.66,11111222 
TABS,ioos:station:wmo:42045:1,2007-05-04T13:00:00Z,26.2168,-96.4998,993.63,11111222 
TABS,ioos:station:wmo:42045:1,2007-05-04T13:30:00Z,26.2168,-96.4998,998.46,11111222 
TABS,ioos:station:wmo:42045:1,2007-05-04T14:00:00Z,26.2168,-96.4998,1003.98,11111222 
TABS,ioos:station:wmo:42045:1,2007-05-04T14:30:00Z,26.2168,-96.4998,1011.06,11111222 
TABS,ioos:station:wmo:42045:1,2007-05-04T15:00:00Z,26.2168,-96.4998,1012.6,11111222 
TABS,ioos:station:wmo:42045:1,2007-05-04T15:30:00Z,26.2168,-96.4998,1009.55,11111222 
TABS,ioos:station:wmo:42045:1,2007-05-04T16:00:00Z,26.2168,-96.4998,1014.56,11111222 
TABS,ioos:station:wmo:42045:1,2007-05-04T16:30:00Z,26.2168,-96.4998,1016.09,11111222 
TABS,ioos:station:wmo:42045:1,2007-05-04T17:00:00Z,26.2168,-96.4998,1011.31,11111222 
TABS,ioos:station:wmo:42045:1,2007-05-04T17:30:00Z,26.2168,-96.4998,1012.34,11111222 
TABS,ioos:station:wmo:42045:1,2007-05-04T18:00:00Z,26.2168,-96.4998,1006.71,11111222 
TABS,ioos:station:wmo:42045:1,2007-05-04T18:30:00Z,26.2168,-96.4998,1002.23,11111222 
TABS,ioos:station:wmo:42045:1,2007-05-04T19:00:00Z,26.2168,-96.4998,1000.38,11111222 
TABS,ioos:station:wmo:42045:1,2007-05-04T19:30:00Z,26.2168,-96.4998,1000.65,11111222 
TABS,ioos:station:wmo:42045:1,2007-05-04T20:00:00Z,26.2168,-96.4998,1000.73,11111222 
TABS,ioos:station:wmo:42045:1,2007-05-04T20:30:00Z,26.2168,-96.4998,1003.54,11111222 
TABS,ioos:station:wmo:42045:1,2007-05-04T21:00:00Z,26.2168,-96.4998,1005.47,11111222 
TABS,ioos:station:wmo:42045:1,2007-05-04T21:30:00Z,26.2168,-96.4998,1005.78,11111222 
TABS,ioos:station:wmo:42045:1,2007-05-04T22:00:00Z,26.2168,-96.4998,1004.5,11111222 
TABS,ioos:station:wmo:42045:1,2007-05-04T22:30:00Z,26.2168,-96.4998,1002.89,11111222 
TABS,ioos:station:wmo:42045:1,2007-05-04T23:00:00Z,26.2168,-96.4998,1001.47,11111222 
TABS,ioos:station:wmo:42045:1,2007-05-04T23:30:00Z,26.2168,-96.4998,999.6,11111222 
TABS,ioos:station:wmo:42045:1,2007-05-05T00:00:00Z,26.2168,-96.4998,997.02,11111222 
TABS,ioos:station:wmo:42045:1,2007-05-05T00:30:00Z,26.2168,-96.4998,994.57,11111222 
TABS,ioos:station:wmo:42045:1,2007-05-05T01:00:00Z,26.2168,-96.4998,993.07,11111222 
TABS,ioos:station:wmo:42045:1,2007-05-05T01:30:00Z,26.2168,-96.4998,993.21,11111222 
TABS,ioos:station:wmo:42045:1,2007-05-05T02:00:00Z,26.2168,-96.4998,993.75,11111222 
TABS,ioos:station:wmo:42045:1,2007-05-05T02:30:00Z,26.2168,-96.4998,994.05,11111222 
TABS,ioos:station:wmo:42045:1,2007-05-05T03:00:00Z,26.2168,-96.4998,994.24,11111222 
TABS,ioos:station:wmo:42045:1,2007-05-05T03:30:00Z,26.2168,-96.4998,993.55,11111222 
TABS,ioos:station:wmo:42045:1,2007-05-05T04:00:00Z,26.2168,-96.4998,993.31,11111222 
TABS,ioos:station:wmo:42045:1,2007-05-05T04:30:00Z,26.2168,-96.4998,993.95,11111222 
TABS,ioos:station:wmo:42045:1,2007-05-05T05:00:00Z,26.2168,-96.4998,994.33,11111222 
TABS,ioos:station:wmo:42045:1,2007-05-05T05:30:00Z,26.2168,-96.4998,994.84,11111222 
TABS,ioos:station:wmo:42045:1,2007-05-05T06:00:00Z,26.2168,-96.4998,994.99,11111222 
TABS,ioos:station:wmo:42045:1,2007-05-05T06:30:00Z,26.2168,-96.4998,995.48,11111222 
TABS,ioos:station:wmo:42045:1,2007-05-05T07:00:00Z,26.2168,-96.4998,994.93,11111222 
TABS,ioos:station:wmo:42045:1,2007-05-05T07:30:00Z,26.2168,-96.4998,994.94,11111222 
TABS,ioos:station:wmo:42045:1,2007-05-05T08:00:00Z,26.2168,-96.4998,994.65,11111222 
TABS,ioos:station:wmo:42045:1,2007-05-05T08:30:00Z,26.2168,-96.4998,994.18,11111222 
TABS,ioos:station:wmo:42045:1,2007-05-05T09:00:00Z,26.2168,-96.4998,993.92,11111222 
TABS,ioos:station:wmo:42045:1,2007-05-05T09:30:00Z,26.2168,-96.4998,993.56,11111222 
TABS,ioos:station:wmo:42045:1,2007-05-05T10:00:00Z,26.2168,-96.4998,993.17,11111222 
TABS,ioos:station:wmo:42045:1,2007-05-05T10:30:00Z,26.2168,-96.4998,993.72,11111222 
TABS,ioos:station:wmo:42045:1,2007-05-05T11:00:00Z,26.2168,-96.4998,993.89,11111222 
TABS,ioos:station:wmo:42045:1,2007-05-05T11:30:00Z,26.2168,-96.4998,993.87,11111222 
TABS,ioos:station:wmo:42045:1,2007-05-05T12:00:00Z,26.2168,-96.4998,993.6,11111222 
TABS,ioos:station:wmo:42045:1,2007-05-05T12:30:00Z,26.2168,-96.4998,994.38,11111222 
TABS,ioos:station:wmo:42045:1,2007-05-05T13:00:00Z,26.2168,-96.4998,997.53,11111222 
TABS,ioos:station:wmo:42045:1,2007-05-05T13:30:00Z,26.2168,-96.4998,1003.3,11111222 
TABS,ioos:station:wmo:42045:1,2007-05-05T14:00:00Z,26.2168,-96.4998,1006.83,11111222 
TABS,ioos:station:wmo:42045:1,2007-05-05T14:30:00Z,26.2168,-96.4998,1008.74,11111222 
TABS,ioos:station:wmo:42045:1,2007-05-05T15:00:00Z,26.2168,-96.4998,1011.84,11111222 
TABS,ioos:station:wmo:42045:1,2007-05-05T15:30:00Z,26.2168,-96.4998,1005.18,11111222 
TABS,ioos:station:wmo:42045:1,2007-05-05T16:00:00Z,26.2168,-96.4998,1011.81,11111222 
TABS,ioos:station:wmo:42045:1,2007-05-05T16:30:00Z,26.2168,-96.4998,1013.27,11111222 
TABS,ioos:station:wmo:42045:1,2007-05-05T17:00:00Z,26.2168,-96.4998,1012.59,11111222 
TABS,ioos:station:wmo:42045:1,2007-05-05T17:30:00Z,26.2168,-96.4998,1010.37,11111222 
TABS,ioos:station:wmo:42045:1,2007-05-05T18:00:00Z,26.2168,-96.4998,1009.34,11111222 
TABS,ioos:station:wmo:42045:1,2007-05-05T18:30:00Z,26.2168,-96.4998,1010.68,11111222 
TABS,ioos:station:wmo:42045:1,2007-05-05T19:00:00Z,26.2168,-96.4998,1005.67,11111222 
TABS,ioos:station:wmo:42045:1,2007-05-05T19:30:00Z,26.2168,-96.4998,1006.11,11111222 
TABS,ioos:station:wmo:42045:1,2007-05-05T20:00:00Z,26.2168,-96.4998,1001.68,11111222 
TABS,ioos:station:wmo:42045:1,2007-05-05T20:30:00Z,26.2168,-96.4998,1001.72,11111222 
TABS,ioos:station:wmo:42045:1,2007-05-05T21:00:00Z,26.2168,-96.4998,999.42,11111222 
TABS,ioos:station:wmo:42045:1,2007-05-05T21:30:00Z,26.2168,-96.4998,998.25,11111222 
TABS,ioos:station:wmo:42045:1,2007-05-05T22:00:00Z,26.2168,-96.4998,1000.55,11111222 
TABS,ioos:station:wmo:42045:1,2007-05-05T22:30:00Z,26.2168,-96.4998,998.15,11111222 
TABS,ioos:station:wmo:42045:1,2007-05-05T23:00:00Z,26.2168,-96.4998,998.34,11111222 
TABS,ioos:station:wmo:42045:1,2007-05-05T23:30:00Z,26.2168,-96.4998,997.26,11111222 
TABS,ioos:station:wmo:42045:1,2007-05-06T00:00:00Z,26.2168,-96.4998,996.5,11111222 
TABS,ioos:station:wmo:42045:1,2007-05-06T00:30:00Z,26.2168,-96.4998,995.98,11111222 
TABS,ioos:station:wmo:42045:1,2007-05-06T01:00:00Z,26.2168,-96.4998,995.22,11111222 
TABS,ioos:station:wmo:42045:1,2007-05-06T01:30:00Z,26.2168,-96.4998,994.86,11111222 
TABS,ioos:station:wmo:42045:1,2007-05-06T02:00:00Z,26.2168,-96.4998,994.69,11111222 
TABS,ioos:station:wmo:42045:1,2007-05-06T02:30:00Z,26.2168,-96.4998,994.66,11111222 
TABS,ioos:station:wmo:42045:1,2007-05-06T03:00:00Z,26.2168,-96.4998,994.65,11111222 
TABS,ioos:station:wmo:42045:1,2007-05-06T03:30:00Z,26.2168,-96.4998,994.53,11111222 
TABS,ioos:station:wmo:42045:1,2007-05-06T04:00:00Z,26.2168,-96.4998,995.1,11111222 
TABS,ioos:station:wmo:42045:1,2007-05-06T04:30:00Z,26.2168,-96.4998,994.74,11111222 
TABS,ioos:station:wmo:42045:1,2007-05-06T05:00:00Z,26.2168,-96.4998,994.72,11111222 
TABS,ioos:station:wmo:42045:1,2007-05-06T05:30:00Z,26.2168,-96.4998,994.72,11111222 
TABS,ioos:station:wmo:42045:1,2007-05-06T06:00:00Z,26.2168,-96.4998,994.22,11111222 
TABS,ioos:station:wmo:42045:1,2007-05-06T06:30:00Z,26.2168,-96.4998,993.75,11111222 
TABS,ioos:station:wmo:42045:1,2007-05-06T07:00:00Z,26.2168,-96.4998,993.75,11111222 
TABS,ioos:station:wmo:42045:1,2007-05-06T07:30:00Z,26.2168,-96.4998,994.52,11111222 
TABS,ioos:station:wmo:42045:1,2007-05-06T08:00:00Z,26.2168,-96.4998,994.16,11111222 
TABS,ioos:station:wmo:42045:1,2007-05-06T08:30:00Z,26.2168,-96.4998,993.91,11111222 
TABS,ioos:station:wmo:42045:1,2007-05-06T09:00:00Z,26.2168,-96.4998,993.64,11111222 
TABS,ioos:station:wmo:42045:1,2007-05-06T09:30:00Z,26.2168,-96.4998,993.13,11111222 
TABS,ioos:station:wmo:42045:1,2007-05-06T10:00:00Z,26.2168,-96.4998,993.23,11111222 
TABS,ioos:station:wmo:42045:1,2007-05-06T10:30:00Z,26.2168,-96.4998,993.29,11111222 
TABS,ioos:station:wmo:42045:1,2007-05-06T11:00:00Z,26.2168,-96.4998,993.39,11111222 
TABS,ioos:station:wmo:42045:1,2007-05-06T11:30:00Z,26.2168,-96.4998,993.15,11111222 
TABS,ioos:station:wmo:42045:1,2007-05-06T12:00:00Z,26.2168,-96.4998,993.39,11111222 
TABS,ioos:station:wmo:42045:1,2007-05-06T12:30:00Z,26.2168,-96.4998,996.65,11111222 
TABS,ioos:station:wmo:42045:1,2007-05-06T13:00:00Z,26.2168,-96.4998,1002.58,11111222 
TABS,ioos:station:wmo:42045:1,2007-05-06T13:30:00Z,26.2168,-96.4998,1004.5,11111222 
TABS,ioos:station:wmo:42045:1,2007-05-06T14:00:00Z,26.2168,-96.4998,1011.9,11111222 
TABS,ioos:station:wmo:42045:1,2007-05-06T14:30:00Z,26.2168,-96.4998,1014.15,11111222 
TABS,ioos:station:wmo:42045:1,2007-05-06T15:00:00Z,26.2168,-96.4998,1016.95,11111222 
TABS,ioos:station:wmo:42045:1,2007-05-06T15:30:00Z,26.2168,-96.4998,1016.78,11111222 
TABS,ioos:station:wmo:42045:1,2007-05-06T16:00:00Z,26.2168,-96.4998,1014.92,11111222 
TABS,ioos:station:wmo:42045:1,2007-05-06T16:30:00Z,26.2168,-96.4998,1006.66,11111222 
TABS,ioos:station:wmo:42045:1,2007-05-06T17:00:00Z,26.2168,-96.4998,1011.36,11111222 
TABS,ioos:station:wmo:42045:1,2007-05-06T17:30:00Z,26.2168,-96.4998,1005.03,11111222 
TABS,ioos:station:wmo:42045:1,2007-05-06T18:00:00Z,26.2168,-96.4998,1001.17,11111222 
TABS,ioos:station:wmo:42045:1,2007-05-06T18:30:00Z,26.2168,-96.4998,1003.27,11111222 
TABS,ioos:station:wmo:42045:1,2007-05-06T19:00:00Z,26.2168,-96.4998,1006.74,11111222 
TABS,ioos:station:wmo:42045:1,2007-05-06T19:30:00Z,26.2168,-96.4998,1005.86,11111222 